Showing default

O3B FM9, 40351

Orbit data source: Space-Track

O3B FM9, 40351 is a payload satellite owned by O3B (JE) that was launched on Thu, 18 Dec 2014 UTC via a SOYUZ-ST-B launch vehicle from the French Guiana (FRGUI). Payloads include a variety of satellites, spacecraft, and rockets equipped with specific instruments for various scientific and technological missions. These include communications satellites like Starlink; space stations such as the ISS; scientific satellites like the Hubble; Earth observation satellites from companies like Planet Labs, Umbra, and HawkEye 360; GPS; miniature CubeSats for education and research; and military/defense satellites.

Loading next visibility...
O3B FM9 details
Identifier
40351, 2014-083D
Orbit
Active
Last TLE update3 days ago
Origin
Flag of JEO3B (JE / O3B)
ManufacturerThales Alenia
MissionOperational Commercial Communications
Bus & MotorPRISMA?, LS-400 AOCS?
Mass700 kg wet, ~500 kg dry
Launch date (UTC)
2014-12-18 (10 years ago)
Launch vehicle
SOYUZ-ST-B
Launch site
French Guiana (FRGUI)
Object type
Payload
Rocket body
Debris
Shape & HBRTrap Box + 2 Pan, 12 m
Radar Cross Section21.980 m², Large (>1 m²)

Expand to show TLE details & history

TLE from 3 days ago
0 O3B FM9
1 40351U 14083D   24358.52205604 -.00000017  00000-0  00000-0 0  9994
2 40351   0.0514 352.3184 0002666 281.4146  86.2371  5.00115395183016
Epoch: 2024-12-23T12:31Z
Definitive object data (Epoch: 2024-12-23T12:31:45.641Z)
Latitude0.00712°
Longitude79.51652°
Altitude8,064.121 km
Speed5.254 km/s
True Right ascension23h 59m 59s
True Declination0° 00' 26"
Sunlit
Object was in daylight at TLE epoch
Visualization TLE readout
Latitude-0.05348°
Longitude-2.60623°
Altitude8,060.53 km
Speed5.256 km/s
Apparent Right ascension19h 30m 31s
Apparent Declination-13° 21' 31"
Sunlit
Object is in daylight
Visualization observer readout
Local Sidereal Time10:45:06
Azimuth72.142° E
Elevation-39.89°
Doppler factor1
Orbital elements
Apogee altitude8,072.802 km
Perigee altitude8,065.099 km
Semi-major axis14,447.088 km
Eccentricity0.0002666
Inclination0.0514°
RAAN352.3184°
Arg. of periapsis281.4146°
True anomaly86.26758°
Mean anomaly86.2371°
Eccentric anomaly86.25234°
Mean motion1.24989 °/min
BSTARUnknown
Orbital period288.02 mins
Loading maneuver chart data...
Loading historical data...
Loading historical data...
Loading historical data...
Loading historical data...
Loading historical data...
Loading historical data...
Loading historical data...
Other satellites on launch #83 in the year 2014 (2014-12-18 UTC)

O3B FM9 Visibility forecast

Observer location: undefined°, undefined

Span
Click to sort rows by Start time (UTC) header in descending order
Start Az.
Max El. time (UTC)
Max El. Az.
Max El.
End time (UTC)
End Az.
79 mins2024-12-26 14:47:45.606Z232.072° WSW2024-12-26 15:26:45.606Z180.662° SSW24.324°2024-12-26 16:06:45.606Z127.801° SE
78 mins2024-12-26 20:48:45.606Z231.012° WSW2024-12-26 21:26:45.606Z180.595° SSW24.331°2024-12-26 22:06:45.606Z127.719° SE
78 mins2024-12-27 02:48:45.606Z231.021° WSW2024-12-27 03:26:45.606Z180.587° SSW24.414°2024-12-27 04:06:45.606Z127.715° SE
78 mins2024-12-27 08:48:45.606Z231.084° WSW2024-12-27 09:26:45.606Z180.654° SSW24.406°2024-12-27 10:06:45.606Z127.797° SE
|